TimeEST,TemperatureF,Dew PointF,Humidity,Sea Level PressureIn,VisibilityMPH,Wind Direction,Wind SpeedMPH,Gust SpeedMPH,PrecipitationIn,Events,Conditions,WindDirDegrees,DateUTC
12:15 AM,48.2,35.6,62,30.34,10.0,ENE,3.5,-,N/A,,Overcast,70,2013-12-01 05:15:00
12:35 AM,46.4,35.6,66,30.33,10.0,Calm,Calm,-,N/A,,Overcast,0,2013-12-01 05:35:00
12:55 AM,46.4,37.4,71,30.33,10.0,Calm,Calm,-,N/A,,Mostly Cloudy,0,2013-12-01 05:55:00
1:15 AM,46.4,37.4,71,30.33,10.0,Calm,Calm,-,N/A,,Mostly Cloudy,0,2013-12-01 06:15:00
1:35 AM,46.4,37.4,71,30.32,10.0,Calm,Calm,-,N/A,,Overcast,0,2013-12-01 06:35:00
1:55 AM,44.6,37.4,76,30.32,10.0,Calm,Calm,-,N/A,,Overcast,0,2013-12-01 06:55:00
2:15 AM,44.6,37.4,76,30.31,10.0,Calm,Calm,-,N/A,,Mostly Cloudy,0,2013-12-01 07:15:00
2:35 AM,44.6,37.4,76,30.31,10.0,Calm,Calm,-,N/A,,Mostly Cloudy,0,2013-12-01 07:35:00
2:55 AM,44.6,37.4,76,30.30,10.0,NNE,3.5,-,N/A,,Mostly Cloudy,20,2013-12-01 07:55:00
3:15 AM,44.6,37.4,76,30.30,10.0,Calm,Calm,-,N/A,,Mostly Cloudy,0,2013-12-01 08:15:00
3:35 AM,44.6,37.4,76,30.29,10.0,NNE,3.5,-,N/A,,Mostly Cloudy,20,2013-12-01 08:35:00
3:55 AM,44.6,37.4,76,30.29,10.0,Calm,Calm,-,N/A,,Mostly Cloudy,0,2013-12-01 08:55:00
4:15 AM,44.6,37.4,76,30.29,10.0,North,4.6,-,N/A,,Mostly Cloudy,360,2013-12-01 09:15:00
4:35 AM,44.6,37.4,76,30.29,10.0,North,4.6,-,N/A,,Overcast,360,2013-12-01 09:35:00
4:55 AM,44.6,37.4,76,30.29,10.0,NNE,4.6,-,N/A,,Overcast,20,2013-12-01 09:55:00
5:15 AM,44.6,37.4,76,30.29,10.0,NNE,4.6,-,N/A,,Overcast,30,2013-12-01 10:15:00
5:35 AM,44.6,37.4,76,30.29,10.0,NNE,3.5,-,N/A,,Overcast,30,2013-12-01 10:35:00
5:55 AM,44.6,37.4,76,30.29,10.0,North,4.6,-,N/A,,Overcast,360,2013-12-01 10:55:00
6:15 AM,44.6,37.4,76,30.29,10.0,NNE,4.6,-,N/A,,Overcast,30,2013-12-01 11:15:00
6:35 AM,44.6,37.4,76,30.31,10.0,Calm,Calm,-,N/A,,Overcast,0,2013-12-01 11:35:00
6:55 AM,44.6,37.4,76,30.31,10.0,NNE,3.5,-,N/A,,Overcast,30,2013-12-01 11:55:00
7:15 AM,44.6,37.4,76,30.29,10.0,NNE,3.5,-,N/A,,Overcast,30,2013-12-01 12:15:00
7:35 AM,44.6,37.4,76,30.29,10.0,Calm,Calm,-,N/A,,Mostly Cloudy,0,2013-12-01 12:35:00
7:55 AM,44.6,37.4,76,30.29,10.0,Calm,Calm,-,N/A,,Overcast,0,2013-12-01 12:55:00
8:15 AM,44.6,37.4,76,30.29,10.0,NNE,3.5,-,N/A,,Overcast,30,2013-12-01 13:15:00
8:35 AM,44.6,37.4,76,30.30,10.0,Calm,Calm,-,N/A,,Overcast,0,2013-12-01 13:35:00
8:55 AM,46.4,37.4,71,30.31,10.0,Calm,Calm,-,N/A,,Overcast,0,2013-12-01 13:55:00
9:15 AM,46.4,37.4,71,30.31,10.0,North,3.5,-,N/A,,Overcast,10,2013-12-01 14:15:00
9:35 AM,46.4,37.4,71,30.31,10.0,Calm,Calm,-,N/A,,Overcast,0,2013-12-01 14:35:00
9:55 AM,46.4,39.2,76,30.30,10.0,Calm,Calm,-,N/A,,Overcast,0,2013-12-01 14:55:00
10:15 AM,46.4,39.2,76,30.31,10.0,Calm,Calm,-,N/A,,Overcast,0,2013-12-01 15:15:00
10:35 AM,48.2,39.2,71,30.31,10.0,Calm,Calm,-,N/A,,Overcast,0,2013-12-01 15:35:00
10:55 AM,48.2,41.0,76,30.29,10.0,Calm,Calm,-,N/A,,Overcast,0,2013-12-01 15:55:00
11:15 AM,50.0,41.0,71,30.28,10.0,Calm,Calm,-,N/A,,Overcast,0,2013-12-01 16:15:00
11:35 AM,51.8,41.0,67,30.27,10.0,Calm,Calm,-,N/A,,Overcast,0,2013-12-01 16:35:00
11:55 AM,51.8,41.0,67,30.25,10.0,Calm,Calm,-,N/A,,Overcast,0,2013-12-01 16:55:00
12:15 PM,53.6,42.8,67,30.24,10.0,Calm,Calm,-,N/A,,Overcast,0,2013-12-01 17:15:00
12:35 PM,53.6,42.8,67,30.22,10.0,Calm,Calm,-,N/A,,Overcast,0,2013-12-01 17:35:00
12:55 PM,53.6,44.6,72,30.22,10.0,Calm,Calm,-,N/A,,Overcast,0,2013-12-01 17:55:00
1:15 PM,53.6,44.6,72,30.20,10.0,Calm,Calm,-,N/A,,Overcast,0,2013-12-01 18:15:00
1:35 PM,55.4,44.6,67,30.19,10.0,NNW,4.6,-,N/A,,Overcast,330,2013-12-01 18:35:00
1:55 PM,55.4,44.6,67,30.19,10.0,NNW,3.5,-,N/A,,Overcast,340,2013-12-01 18:55:00
2:15 PM,55.4,44.6,67,30.18,10.0,North,3.5,-,N/A,,Overcast,360,2013-12-01 19:15:00
2:35 PM,55.4,46.4,72,30.17,10.0,Calm,Calm,-,N/A,,Overcast,0,2013-12-01 19:35:00
2:55 PM,55.4,46.4,72,30.16,10.0,Calm,Calm,-,N/A,,Overcast,0,2013-12-01 19:55:00
3:15 PM,57.2,46.4,67,30.14,10.0,Calm,Calm,-,N/A,,Scattered Clouds,0,2013-12-01 20:15:00
3:35 PM,57.2,46.4,67,30.14,10.0,Calm,Calm,-,N/A,,Scattered Clouds,0,2013-12-01 20:35:00
3:55 PM,57.2,48.2,72,30.14,10.0,Calm,Calm,-,N/A,,Clear,0,2013-12-01 20:55:00
4:15 PM,55.4,48.2,77,30.13,10.0,Calm,Calm,-,N/A,,Clear,0,2013-12-01 21:15:00
4:35 PM,55.4,48.2,77,30.12,10.0,Calm,Calm,-,N/A,,Clear,0,2013-12-01 21:35:00
4:55 PM,55.4,48.2,77,30.12,10.0,Calm,Calm,-,N/A,,Clear,0,2013-12-01 21:55:00
5:15 PM,53.6,48.2,82,30.11,10.0,Calm,Calm,-,N/A,,Clear,0,2013-12-01 22:15:00
5:35 PM,50.0,46.4,87,30.11,10.0,Calm,Calm,-,N/A,,Clear,0,2013-12-01 22:35:00
5:55 PM,48.2,46.4,93,30.11,10.0,Calm,Calm,-,N/A,,Clear,0,2013-12-01 22:55:00
6:15 PM,48.2,46.4,93,30.11,10.0,Calm,Calm,-,N/A,,Clear,0,2013-12-01 23:15:00
6:35 PM,46.4,44.6,93,30.11,10.0,Calm,Calm,-,N/A,,Clear,0,2013-12-01 23:35:00
6:55 PM,46.4,44.6,93,30.10,10.0,Calm,Calm,-,N/A,,Scattered Clouds,0,2013-12-01 23:55:00
7:15 PM,46.4,44.6,93,30.10,10.0,Calm,Calm,-,N/A,,Scattered Clouds,0,2013-12-02 00:15:00
7:35 PM,44.6,44.6,100,30.10,10.0,Calm,Calm,-,N/A,,Clear,0,2013-12-02 00:35:00
7:55 PM,44.6,44.6,100,30.10,10.0,Calm,Calm,-,N/A,,Scattered Clouds,0,2013-12-02 00:55:00
8:15 PM,44.6,44.6,100,30.10,7.0,Calm,Calm,-,N/A,,Scattered Clouds,0,2013-12-02 01:15:00
8:35 PM,44.6,44.6,100,30.10,10.0,Calm,Calm,-,N/A,,Scattered Clouds,0,2013-12-02 01:35:00
8:55 PM,44.6,44.6,100,30.09,7.0,Calm,Calm,-,N/A,,Mostly Cloudy,0,2013-12-02 01:55:00
9:15 PM,44.6,44.6,100,30.09,10.0,Calm,Calm,-,N/A,,Scattered Clouds,0,2013-12-02 02:15:00
9:35 PM,44.6,44.6,100,30.09,10.0,Calm,Calm,-,N/A,,Clear,0,2013-12-02 02:35:00
9:55 PM,44.6,44.6,100,30.09,10.0,Calm,Calm,-,N/A,,Clear,0,2013-12-02 02:55:00
10:15 PM,42.8,42.8,100,30.09,7.0,Calm,Calm,-,N/A,,Clear,0,2013-12-02 03:15:00
10:35 PM,42.8,42.8,100,30.08,7.0,Calm,Calm,-,N/A,,Mostly Cloudy,0,2013-12-02 03:35:00
10:55 PM,44.6,44.6,100,30.07,10.0,Calm,Calm,-,N/A,,Overcast,0,2013-12-02 03:55:00
11:15 PM,46.4,44.6,93,30.07,10.0,Calm,Calm,-,N/A,,Overcast,0,2013-12-02 04:15:00
11:35 PM,46.4,46.4,100,30.06,10.0,Calm,Calm,-,N/A,,Mostly Cloudy,0,2013-12-02 04:35:00
11:55 PM,46.4,44.6,93,30.05,10.0,Calm,Calm,-,N/A,,Scattered Clouds,0,2013-12-02 04:55:00